Printer-friendly version

IAU Minor Planet Center

Minor Planet Center

MPEC 2006-F59 : 2006 FY35

The following Minor Planet Electronic Circular may be linked-to from your own Web pages, but must not otherwise be redistributed electronically.


Read MPEC 2006-F58 Read MPEC 2006-G01


M.P.E.C. 2006-F59                                Issued 2006 Mar. 31, 16:25 UT

     The Minor Planet Electronic Circulars contain information on unusual
         minor planets and routine data on comets.  They are published
   on behalf of Commission 20 of the International Astronomical Union by the
          Minor Planet Center, Smithsonian Astrophysical Observatory,
                          Cambridge, MA 02138, U.S.A.

                  Supported in part by the Brinson Foundation
                  Supported in part by the TABASGO Foundation
             Prepared using the Tamkin Foundation Computer Network

                              MPC@CFA.HARVARD.EDU
          URL http://cfa-www.harvard.edu/iau/mpc.html  ISSN 1523-6714

                                   2006 FY35

Observations:
     K06F35Y* C2006 03 25.34190 13 30 26.35 +26 24 49.6          18.7 V EF059703
     K06F35Y  C2006 03 25.34907 13 30 25.38 +26 24 39.3          18.5 V EF059703
     K06F35Y  C2006 03 25.35626 13 30 24.44 +26 24 27.6          18.5 V EF059703
     K06F35Y  C2006 03 25.36350 13 30 23.65 +26 24 15.9          18.7 V EF059703
     K06F35Y  C2006 03 31.26488 13 17 27.59 +23 17 30.3          18.0 R EF059699
     K06F35Y  C2006 03 31.29219 13 17 23.14 +23 16 27.6                 EF059699
     K06F35Y  C2006 03 31.31955 13 17 18.76 +23 15 25.0                 EF059699
     K06F35Y  C2006 03 31.34694 13 17 14.32 +23 14 21.3                 EF059699
     K06F35Y  C2006 03 31.51100 13 16 50.26 +23 08 35.2          18.1 R EF059474
     K06F35Y  C2006 03 31.51238 13 16 50.03 +23 08 31.9          18.3 R EF059474
     K06F35Y  C2006 03 31.51586 13 16 49.49 +23 08 23.6          18.3 R EF059474
     K06F35Y  C2006 03 31.58565 13 16 38.25 +23 05 40.9          18.2 R EF059474
     K06F35Y  C2006 03 31.58773 13 16 37.92 +23 05 35.2          18.1 R EF059474

Observer details:
474 Mount John Observatory, Lake Tekapo.  Observer A. C. Gilmore.  1.0-m f/7.7
    reflector + CCD.
699 Lowell Observatory-LONEOS.  Observer M. E. Van Ness.  0.59-m LONEOS
    Schmidt + CCD.
703 Catalina Sky Survey.  Observer S. M. Larson.  Measurers E. C. Beshore,
    E. J. Christensen, G. J. Garradd, A. R. Gibbs, A. D. Grauer, R. E. Hill,
    R. A. Kowalski, S. M. Larson, R. H. McNaught.  0.68-m Schmidt + CCD.

Orbital elements:
2006 FY35                                                Earth MOID = 0.1769 AU
Epoch 2006 Mar. 6.0 TT = JDT 2453800.5                  MPC
M 328.03543              (2000.0)            P               Q
n   0.41485162     Peri.  207.39896     -0.60250184     +0.78207779
a   1.7804954      Node    26.51534     -0.65133450     -0.36653173
e   0.3503465      Incl.   20.89213     -0.46125363     -0.50399288
P   2.38           H   19.6           G   0.15           U   8
Residuals in seconds of arc
060325 703  0.7+  0.0     060331 699  0.4-  0.0     060331 474  0.1+  0.2-
060325 703  0.3-  0.7+    060331 699  0.1-  0.1+    060331 474  0.1+  0.4+
060325 703  0.9-  0.1-    060331 699  0.4-  0.4-    060331 474  0.2+  0.4-
060325 703  0.6+  0.7-    060331 474  0.0   0.1+
060331 699  0.7+  0.4+    060331 474  0.2-  0.0

Ephemeris:
2006 FY35                a,e,i = 1.78, 0.35, 21                  q = 1.1567
Date    TT    R. A. (2000) Decl.     Delta      r     Elong.  Phase     V
2006 03 26    13 29.17   +26 07.7    0.312    1.271   147.1    25.2    18.8
2006 04 05    13 04.66   +19 46.7    0.257    1.237   154.2    20.6    18.1
2006 04 15    12 32.41   +08 47.9    0.220    1.208   156.4    19.4    17.7
2006 04 25    11 57.86   -06 13.1    0.207    1.184   146.9    27.6    17.8
2006 05 05    11 27.73   -21 34.9    0.219    1.168   132.7    39.4    18.2
2006 05 15    11 06.36   -34 05.5    0.250    1.159   120.8    48.5    18.7
2006 05 25    10 54.77   -43 24.5    0.291    1.157   112.8    53.8    19.2
2006 06 04    10 52.93   -50 28.7    0.336    1.163   108.0    56.0    19.6
2006 06 14    11 00.74   -56 10.4    0.383    1.177   105.4    56.3    19.9
2006 06 24    11 19.01   -60 58.6    0.428    1.197   104.4    55.3    20.2
2006 07 04    11 50.15   -65 05.7    0.473    1.224   104.5    53.5    20.4
2006 07 14    12 37.38   -68 26.0    0.518    1.256   105.3    51.3    20.6
2006 07 24    13 42.84   -70 34.8    0.564    1.293   106.4    48.9    20.7
2006 08 03    15 01.78   -70 59.6    0.613    1.334   107.5    46.5    20.9
2006 08 13    16 20.06   -69 26.4    0.668    1.377   108.2    44.3    21.1
2006 08 23    17 25.76   -66 15.5    0.730    1.423   108.5    42.4    21.3
2006 09 02    18 17.14   -62 04.1    0.802    1.470   108.0    40.8    21.6
2006 09 12    18 57.43   -57 24.6    0.883    1.517   106.6    39.5    21.8

Timothy B. Spahr             (C) Copyright 2006 MPC           M.P.E.C. 2006-F59

Read MPEC 2006-F58 Read MPEC 2006-G01


Our Web policy. Index to the CBAT/MPC/ICQ pages.


Valid HTML 4.01!